, MS

(GMT )
Nakika

Weather History for KIKT - March, 2014

Change the Weather History Date:

Thursday, March 13, 2014

  Actual Average Record
Temperature  
Mean Temperature 58 °F -  
Max Temperature 62 °F - - ()
Min Temperature 53 °F - - ()
Degree Days  
Heating Degree Days 8    
Growing Degree Days 8 (Base 50)    
Moisture  
Dew Point 40 °F    
Average Humidity 53    
Maximum Humidity 63    
Minimum Humidity 44    
Precipitation  
Precipitation 0.00 in - - ()
Sea Level Pressure  
Sea Level Pressure 30.21 in    
Wind  
Wind Speed 17 mph (NNE)    
Max Wind Speed 32 mph    
Max Gust Speed 38 mph    
Visibility 10 miles    
Events      
Averages and records for this station are not official NWS values.
T = Trace of Precipitation, MM = Missing Value Source: NWS Daily Summary

Daily Weather History Graph

Daily Weather History Graph

Search for Another Location

Airport or City:

Trip Planner

Search our weather history database for the weather conditions in past years. The results will help you decide how hot, cold, wet, or windy it might be!

Date:

Astronomy

Mar. 13, 2014 Rise Set
Actual Time 7:05 AM CDT 7:00 PM CDT
Civil Twilight 6:41 AM CDT 7:24 PM CDT
Nautical Twilight 6:14 AM CDT 7:51 PM CDT
Astronomical Twilight 5:46 AM CDT 8:18 PM CDT
Moon 4:35 PM CDT (3/13) 5:00 AM CDT (3/13)
Length of Visible Light 12h 42m
Length of Day
11h 55m
Waxing Gibbous, 91% of the Moon is Illuminated
Mar 13
Waxing Gibbous
Mar 16
Full
Mar 23
Last Quarter
Mar 30
New
Apr 7
First Quarter

Hourly Weather History & Observations

Time (CDT) Temp. Dew Point Humidity Pressure Visibility Wind Dir Wind Speed Gust Speed Precip Events Conditions
12:00 AM 62.6 °F 44.6 °F 52% 30.06 in 10.0 mi NNW 8.1 mph 19.6 mph N/A   Mostly Cloudy
12:20 AM 62.6 °F 46.4 °F 55% 30.07 in 10.0 mi WNW 8.1 mph 25.3 mph N/A   Overcast
12:40 AM 60.8 °F 44.6 °F 55% 30.07 in 10.0 mi North 19.6 mph 29.9 mph N/A   Overcast
1:00 AM 60.8 °F 46.4 °F 59% 30.08 in 10.0 mi North 18.4 mph 32.2 mph N/A   Overcast
1:20 AM 60.8 °F 44.6 °F 55% 30.09 in 10.0 mi NNW 10.4 mph 31.1 mph N/A   Overcast
1:40 AM 60.8 °F 46.4 °F 59% 30.09 in 10.0 mi North 17.3 mph 28.8 mph N/A   Mostly Cloudy
2:00 AM 59.0 °F 44.6 °F 59% 30.10 in 10.0 mi North 23.0 mph 32.2 mph N/A   Mostly Cloudy
2:20 AM 59.0 °F 44.6 °F 59% 30.10 in 10.0 mi NNE 26.5 mph - N/A   Mostly Cloudy
2:40 AM 57.2 °F 44.6 °F 63% 30.11 in 10.0 mi North 26.5 mph 33.4 mph N/A   Overcast
3:00 AM 57.2 °F 42.8 °F 59% 30.11 in 10.0 mi North 21.9 mph 34.5 mph N/A   Overcast
3:20 AM 57.2 °F 41.0 °F 55% 30.12 in 10.0 mi North 17.3 mph 36.8 mph N/A   Mostly Cloudy
3:40 AM 55.4 °F 42.8 °F 63% 30.12 in 10.0 mi North 26.5 mph 35.7 mph N/A   Overcast
4:00 AM 55.4 °F 42.8 °F 63% 30.12 in 10.0 mi North 13.8 mph 35.7 mph N/A   Mostly Cloudy
4:20 AM 55.4 °F 42.8 °F 63% 30.13 in 10.0 mi NNE 27.6 mph 35.7 mph N/A   Overcast
4:40 AM 55.4 °F 41.0 °F 58% 30.13 in 10.0 mi NNE 29.9 mph 38.0 mph N/A   Overcast
5:00 AM 53.6 °F 39.2 °F 58% 30.15 in 10.0 mi North 25.3 mph 34.5 mph N/A   Mostly Cloudy
5:20 AM 55.4 °F 41.0 °F 58% 30.15 in 10.0 mi NNE 29.9 mph - N/A   Mostly Cloudy
5:40 AM 55.4 °F 41.0 °F 58% 30.16 in 10.0 mi NNE 28.8 mph 38.0 mph N/A   Mostly Cloudy
6:00 AM 55.4 °F 39.2 °F 54% 30.17 in 10.0 mi NNE 29.9 mph 35.7 mph N/A   Mostly Cloudy
6:20 AM 55.4 °F 39.2 °F 54% 30.18 in 10.0 mi NNE 27.6 mph 36.8 mph N/A   Mostly Cloudy
6:40 AM 53.6 °F 37.4 °F 54% 30.19 in 10.0 mi NNE 28.8 mph 38.0 mph N/A   Mostly Cloudy
7:00 AM 53.6 °F 39.2 °F 58% 30.19 in 10.0 mi NNE 26.5 mph 38.0 mph N/A   Scattered Clouds
7:20 AM 53.6 °F 37.4 °F 54% 30.20 in 10.0 mi NNE 27.6 mph 35.7 mph N/A   Clear
7:40 AM 55.4 °F 37.4 °F 51% 30.20 in 10.0 mi NNE 29.9 mph 36.8 mph N/A   Clear
8:00 AM 55.4 °F 35.6 °F 47% 30.21 in 10.0 mi NNE 32.2 mph - N/A   Clear
8:20 AM 55.4 °F 39.2 °F 54% 30.23 in 10.0 mi NNE 24.2 mph 36.8 mph N/A   Clear
8:40 AM 55.4 °F 37.4 °F 51% 30.24 in 10.0 mi NNE 29.9 mph 35.7 mph N/A   Clear
9:00 AM 55.4 °F 35.6 °F 47% 30.25 in 10.0 mi NNE 25.3 mph 36.8 mph N/A   Clear
9:20 AM 55.4 °F 37.4 °F 51% 30.26 in 10.0 mi NNE 23.0 mph 34.5 mph N/A   Clear
9:40 AM 55.4 °F 39.2 °F 54% 30.26 in 10.0 mi NNE 25.3 mph 32.2 mph N/A   Clear
10:00 AM 55.4 °F 37.4 °F 51% 30.27 in 10.0 mi NE 16.1 mph 32.2 mph N/A   Clear
10:20 AM 55.4 °F 37.4 °F 51% 30.28 in 10.0 mi NNE 20.7 mph 28.8 mph N/A   Clear
10:40 AM 57.2 °F 39.2 °F 51% 30.27 in 10.0 mi NNE 20.7 mph 29.9 mph N/A   Clear
11:00 AM 57.2 °F 35.6 °F 44% 30.28 in 10.0 mi NNE 17.3 mph 28.8 mph N/A   Clear
11:20 AM 57.2 °F 35.6 °F 44% 30.27 in 10.0 mi NE 13.8 mph 27.6 mph N/A   Clear
11:40 AM 57.2 °F 37.4 °F 48% 30.27 in 10.0 mi NE 15.0 mph 26.5 mph N/A   Clear
12:00 PM 57.2 °F 37.4 °F 48% 30.27 in 10.0 mi NNE 19.6 mph 26.5 mph N/A   Clear
12:20 PM 57.2 °F 37.4 °F 48% 30.27 in 10.0 mi NE 12.7 mph 25.3 mph N/A   Clear
12:40 PM 57.2 °F 37.4 °F 48% 30.27 in 10.0 mi NE 10.4 mph 19.6 mph N/A   Clear
1:00 PM 57.2 °F 37.4 °F 48% 30.26 in 10.0 mi ENE 12.7 mph 25.3 mph N/A   Clear
1:20 PM 57.2 °F 37.4 °F 48% 30.25 in 10.0 mi NE 12.7 mph 21.9 mph N/A   Clear
1:40 PM 57.2 °F 37.4 °F 48% 30.25 in 10.0 mi NE 12.7 mph 23.0 mph N/A   Clear
2:00 PM 57.2 °F 39.2 °F 51% 30.24 in 10.0 mi NNE 16.1 mph 23.0 mph N/A   Clear
2:20 PM 57.2 °F 39.2 °F 51% 30.24 in 10.0 mi ENE 15.0 mph - N/A   Clear
2:40 PM 57.2 °F 37.4 °F 48% 30.23 in 10.0 mi NE 10.4 mph 20.7 mph N/A   Clear
3:00 PM 57.2 °F 39.2 °F 51% 30.23 in 10.0 mi NE 9.2 mph 19.6 mph N/A   Clear
3:20 PM 57.2 °F 39.2 °F 51% 30.23 in 10.0 mi NE 10.4 mph 19.6 mph N/A   Clear
3:40 PM 57.2 °F 39.2 °F 51% 30.23 in - ENE 11.5 mph 18.4 mph N/A   Clear
4:00 PM 57.2 °F 39.2 °F 51% 30.23 in 10.0 mi ENE 10.4 mph - N/A   Clear
4:20 PM 57.2 °F 39.2 °F 51% 30.23 in 10.0 mi NE 8.1 mph 16.1 mph N/A   Clear
4:40 PM 57.2 °F 41.0 °F 55% 30.22 in 10.0 mi NNE 12.7 mph - N/A   Clear
5:00 PM 57.2 °F 41.0 °F 55% 30.22 in 10.0 mi NNE 10.4 mph 17.3 mph N/A   Clear
5:20 PM 57.2 °F 41.0 °F 55% 30.22 in 10.0 mi NNE 10.4 mph 18.4 mph N/A   Clear
5:40 PM 57.2 °F 39.2 °F 51% 30.22 in 10.0 mi NNE 12.7 mph 19.6 mph N/A   Clear
6:00 PM 57.2 °F 39.2 °F 51% 30.23 in 10.0 mi NNE 11.5 mph - N/A   Clear
6:20 PM 57.2 °F 39.2 °F 51% 30.23 in 10.0 mi NNE 9.2 mph 15.0 mph N/A   Clear
6:40 PM 57.2 °F 39.2 °F 51% 30.23 in 10.0 mi NNE 9.2 mph 16.1 mph N/A   Clear
7:00 PM 57.2 °F 41.0 °F 55% 30.23 in 10.0 mi NNE 10.4 mph - N/A   Clear
7:20 PM 57.2 °F 41.0 °F 55% 30.25 in 10.0 mi North 6.9 mph 12.7 mph N/A   Clear
7:40 PM 57.2 °F 41.0 °F 55% 30.25 in 10.0 mi NNE 9.2 mph - N/A   Clear
8:00 PM 57.2 °F 41.0 °F 55% 30.25 in 10.0 mi North 8.1 mph - N/A   Clear
8:20 PM 57.2 °F 39.2 °F 51% 30.26 in 10.0 mi North 8.1 mph - N/A   Clear
8:40 PM 57.2 °F 41.0 °F 55% 30.25 in 10.0 mi NE 5.8 mph 12.7 mph N/A   Clear
9:00 PM 57.2 °F 39.2 °F 51% 30.25 in 10.0 mi NNE 8.1 mph - N/A   Clear
9:20 PM 57.2 °F 39.2 °F 51% 30.26 in 10.0 mi NE 6.9 mph 13.8 mph N/A   Clear
9:40 PM 59.0 °F 41.0 °F 51% 30.25 in 10.0 mi NE 8.1 mph - N/A   Clear
10:00 PM 59.0 °F 39.2 °F 48% 30.25 in 10.0 mi NE 6.9 mph 15.0 mph N/A   Clear
10:20 PM 59.0 °F 39.2 °F 48% 30.25 in 10.0 mi ENE 11.5 mph - N/A   Clear
10:40 PM 59.0 °F 41.0 °F 51% 30.25 in 10.0 mi ENE 10.4 mph - N/A   Clear
11:00 PM 59.0 °F 41.0 °F 51% 30.25 in 10.0 mi ENE 11.5 mph - N/A   Clear
11:20 PM 59.0 °F 41.0 °F 51% 30.25 in 10.0 mi ENE 10.4 mph - N/A   Clear
11:40 PM 59.0 °F 41.0 °F 51% 30.24 in 10.0 mi East 10.4 mph - N/A   Clear